Wind_Speed
66 70 75 76 81 82 82 77 72 73 72 68 69 68 66 63 61 54 55 57 59 65 70 64 62 63 66 65 71 82 85 89 93 94 97 98 103 106 99 85 71 60 52
66 71 74 77 80 83 85 84 81 80 79 67 65 63 54 60 55 53 56 60 64 66 63 61 60 60 64 73 81 81 84 96 95 95 97 105 109 107 91 77 66 56 49
60 65 69 73 77 79 80 81 80 78 69 71 61 57 55 50 54 55 58 60 60 62 60 59 61 63 71 81 85 83 89 99 99 100 105 108 109 99 81 69 59 53 46
53 61 67 69 71 74 76 76 75 71 64 60 56 53 54 54 54 56 58 61 63 61 61 60 59 67 75 75 84 87 95 101 101 106 106 110 106 85 72 62 53 48 45
55 58 61 63 65 67 69 72 70 67 61 57 52 47 49 51 54 56 59 65 62 56 57 56 64 69 80 79 83 91 97 102 102 106 109 112 94 78 65 56 51 46 41
51 52 55 60 63 61 61 61 65 60 57 54 54 51 51 51 51 48 57 61 54 52 52 58 63 74 78 83 85 91 95 101 104 110 112 104 83 72 59 51 46 42 36
60 58 57 55 57 60 58 57 57 54 60 56 57 57 52 54 55 57 55 47 51 50 55 57 72 75 74 82 87 93 98 100 105 108 112 93 77 65 54 50 45 38 32
63 64 61 56 55 58 55 53 53 44 42 49 55 52 54 51 53 50 52 55 53 56 62 67 70 69 78 84 91 95 97 100 104 107 101 86 70 58 52 49 42 35 28
71 69 64 58 55 54 54 49 46 42 39 38 43 41 42 49 45 38 48 51 57 62 64 68 64 71 79 86 90 96 96 101 103 102 88 76 63 54 48 43 38 32 25
77 72 64 61 57 54 53 50 40 38 34 31 34 36 34 37 39 41 47 54 60 63 59 59 64 72 79 85 91 94 98 99 102 90 77 65 55 50 45 39 32 28 24
82 74 63 57 54 54 52 47 40 36 35 32 34 40 39 40 40 45 50 53 56 54 54 62 66 71 79 83 89 95 96 98 95 82 68 55 48 41 35 30 26 22 20
83 73 62 57 54 51 47 45 41 35 38 35 44 43 38 38 43 47 50 50 50 53 54 63 65 72 78 83 91 96 96 93 85 70 57 46 39 30 24 22 23 23 22
76 66 60 55 54 49 44 42 38 33 36 33 44 48 44 46 41 44 50 49 51 51 58 59 66 70 78 85 93 93 95 85 72 59 46 37 31 21 15 16 18 19 21
73 62 56 53 52 50 43 41 34 32 35 33 34 37 34 36 41 44 44 47 52 51 54 60 65 73 76 83 90 91 87 73 60 48 36 31 25 16 9 9 10 11 13
70 62 55 54 50 48 46 39 35 31 35 31 32 31 33 38 39 38 44 46 44 48 54 60 68 71 78 85 88 89 76 63 51 38 30 26 22 16 9 7 6 5 6
61 59 56 54 49 47 48 39 33 35 34 37 35 32 36 35 36 36 35 40 47 55 56 60 68 76 82 80 85 79 66 54 42 32 26 23 20 16 13 11 9 8 8
57 57 54 53 50 45 45 34 32 36 35 45 45 33 32 36 45 40 42 42 47 49 56 63 69 81 80 82 83 70 57 46 37 30 25 22 20 18 15 15 15 14 14
55 56 50 50 47 40 34 33 35 34 35 47 45 41 34 37 35 39 39 40 47 54 61 68 74 77 77 84 74 60 49 40 36 32 29 26 23 21 20 20 19 18 19
50 51 47 47 43 31 29 32 34 33 31 42 36 33 33 34 35 39 43 45 51 57 63 68 68 70 77 78 62 51 42 39 36 34 32 29 26 25 23 24 23 23 22
48 48 46 45 34 28 29 31 26 22 24 22 22 25 27 28 29 34 38 43 50 55 59 65 67 72 77 61 55 44 41 41 39 38 35 30 26 24 24 24 23 24 23
47 47 47 40 28 31 36 30 30 29 29 22 18 18 21 27 31 34 38 42 51 59 60 65 70 71 66 55 46 39 40 39 37 32 28 26 24 23 21 20 20 20 21
47 47 45 36 36 40 34 31 37 28 24 21 16 16 22 26 26 30 40 47 52 60 61 68 71 69 56 48 39 38 38 35 30 27 26 27 25 23 21 19 18 16 15
45 46 42 39 46 41 33 44 34 29 23 16 18 20 22 27 31 34 40 51 54 57 65 71 70 55 48 39 36 36 33 29 24 25 26 24 22 19 17 15 13 12 11
41 42 41 43 45 37 49 40 35 27 20 18 18 19 22 28 36 42 48 47 52 64 69 66 58 46 38 33 34 33 29 25 26 26 23 20 17 15 13 11 10 10 10
38 42 42 47 41 50 44 36 28 23 18 15 19 21 24 28 36 42 44 52 60 65 63 57 45 38 30 30 31 28 24 25 26 24 21 18 15 13 11 10 10 10 11
42 48 46 45 53 44 38 29 23 16 13 10 11 17 27 35 36 42 52 58 61 60 55 41 36 27 27 28 25 22 22 24 23 20 18 16 16 17 18 19 19 19 21
Wind_Direction
252 253 253 257 256 261 260 266 270 272 280 285 285 288 288 290 293 291 292 295 299 303 306 312 313 318 321 322 323 322 321 324 323 322 323 322 323 325 322 319 314 306 295
257 255 255 257 259 260 262 268 273 277 276 282 285 285 285 288 288 288 293 296 299 304 309 314 314 318 319 323 325 323 322 324 323 322 321 324 324 324 322 318 312 305 295
270 267 265 262 261 262 264 267 271 275 278 278 279 280 282 287 285 290 294 295 302 308 311 314 316 313 319 323 326 323 325 325 324 325 324 323 324 324 323 317 311 304 296
277 274 271 268 265 264 264 265 266 270 273 275 276 282 283 287 290 294 294 295 302 308 312 317 313 312 320 322 323 324 327 326 326 325 324 326 327 325 324 319 314 307 298
286 284 282 282 278 273 270 266 264 267 269 270 274 271 273 285 292 288 289 294 306 310 312 311 313 319 320 321 323 326 327 326 326 324 326 325 328 328 326 322 318 311 302
303 299 287 285 284 281 277 275 266 266 264 266 267 268 268 271 282 288 296 302 307 307 312 313 316 319 318 320 325 327 326 328 326 323 326 330 331 330 329 327 323 316 311
317 310 297 287 284 280 278 275 272 269 263 263 264 267 272 274 276 291 298 293 307 304 313 312 314 316 316 322 325 327 327 327 325 327 327 332 332 330 334 336 331 325 318
313 311 301 290 283 277 275 275 275 272 269 262 258 268 271 277 281 293 295 297 302 297 306 311 314 314 317 319 326 326 327 326 327 328 329 332 331 334 339 339 337 334 327
309 309 300 291 287 280 274 274 272 277 279 268 249 254 264 275 282 275 278 289 292 296 305 310 312 313 316 322 324 324 325 323 328 329 329 330 331 338 340 340 341 344 342
305 306 295 289 282 278 275 276 274 270 272 266 254 251 256 264 269 272 277 284 289 296 308 309 315 318 318 321 323 322 325 325 328 329 329 329 335 339 341 341 344 353 357
302 301 292 286 279 278 273 272 271 259 263 260 242 236 247 259 260 270 283 287 293 301 306 311 314 315 320 321 324 325 324 327 328 328 328 331 338 341 347 350 356 3 11
299 296 289 285 275 274 269 268 267 259 253 254 235 236 253 260 265 276 282 287 293 301 307 310 314 317 320 324 324 324 326 326 327 327 327 335 339 346 357 11 23 33 40
293 290 286 282 275 272 265 264 267 253 253 259 236 233 247 260 267 272 271 282 292 300 308 311 312 319 322 324 323 324 326 327 326 326 328 337 339 346 3 23 33 45 55
287 280 279 275 275 274 261 259 257 246 255 261 236 227 258 262 261 264 274 283 292 304 309 308 317 322 323 325 324 327 326 327 327 325 330 335 336 337 348 13 28 41 51
282 276 270 270 270 269 261 254 247 242 251 240 216 238 250 252 260 271 275 284 295 304 307 314 318 320 323 323 326 329 328 328 327 326 332 332 331 326 318 332 340 356 14
273 266 259 258 259 258 255 255 244 235 244 212 214 230 239 249 260 273 285 291 296 303 307 314 317 320 321 323 329 328 329 330 329 329 330 326 326 319 305 298 294 293 297
270 265 256 250 249 251 250 245 225 234 236 215 219 236 257 262 265 280 286 298 300 301 310 314 316 317 317 327 329 329 331 331 331 330 325 320 315 314 308 297 290 286 284
260 258 252 243 243 245 243 232 228 233 233 221 223 237 261 267 279 286 293 295 298 308 310 312 314 317 324 329 327 329 329 331 330 330 328 324 317 309 303 297 294 289 287
249 247 244 238 241 235 230 225 224 233 227 221 225 242 258 269 278 284 289 291 300 304 309 315 318 322 327 327 327 326 325 324 323 322 319 317 313 309 304 297 294 292 289
238 236 232 232 232 218 211 216 218 204 190 196 225 248 266 274 281 282 291 302 303 305 312 319 320 325 327 326 325 324 323 322 324 322 321 320 317 314 309 302 299 296 294
229 225 222 222 213 199 196 191 169 172 185 198 220 245 263 270 281 296 300 299 303 308 313 317 325 325 326 326 324 323 323 325 324 324 324 324 325 325 322 315 310 306 303
220 216 211 202 190 187 181 172 165 173 189 206 221 244 261 277 293 304 306 310 310 312 320 324 325 326 325 325 324 324 326 327 327 326 326 327 328 328 327 326 325 322 324
213 211 198 187 181 177 173 162 167 183 191 206 231 250 272 284 291 306 311 315 314 317 325 326 326 325 325 325 324 327 329 331 330 331 332 333 335 336 336 337 341 349 356
201 197 189 179 174 166 156 164 177 182 186 210 232 252 268 279 295 301 307 314 320 323 325 326 325 325 325 325 327 330 332 335 337 337 339 343 346 350 357 6 17 27 36
181 183 172 168 164 155 163 167 170 179 191 213 245 268 286 300 303 307 311 318 321 323 324 325 323 324 325 328 330 334 339 343 342 344 347 350 358 5 13 26 34 45 62
164 157 160 157 151 159 161 162 174 193 206 227 269 302 304 303 308 312 318 323 323 324 325 324 322 324 328 330 335 342 350 352 356 2 10 22 38 50 61 68 73 79 82
Height
10725 10724 10722 10719 10716 10714 10713 10711 10710 10708 10704 10704 10703 10701 10698 10694 10692 10686 10681 10673 10666 10660 10650 10642 10631 10624 10615 10604 10593 10581 10569 10555 10539 10518 10503 10488 10468 10449 10426 10412 10403 10395 10389
10708 10707 10706 10705 10701 10699 10698 10697 10694 10691 10692 10690 10688 10686 10683 10680 10678 10673 10669 10662 10656 10647 10638 10630 10620 10610 10602 10593 10581 10567 10555 10538 10522 10507 10487 10466 10446 10425 10406 10389 10379 10373 10367
10690 10689 10687 10685 10683 10683 10684 10684 10681 10679 10676 10677 10674 10673 10671 10667 10663 10660 10656 10648 10643 10633 10625 10616 10608 10598 10588 10578 10566 10552 10538 10520 10502 10484 10467 10449 10426 10403 10384 10370 10360 10351 10347
10673 10670 10668 10665 10665 10665 10665 10666 10666 10665 10664 10662 10662 10661 10657 10653 10650 10647 10642 10634 10628 10620 10612 10604 10595 10586 10574 10563 10551 10537 10521 10502 10482 10464 10448 10428 10408 10385 10368 10353 10342 10334 10327
10661 10657 10652 10648 10647 10647 10646 10646 10650 10650 10651 10651 10651 10649 10645 10642 10638 10633 10628 10622 10615 10608 10602 10593 10584 10575 10563 10552 10539 10525 10507 10488 10468 10449 10431 10413 10388 10370 10355 10340 10328 10319 10312
10646 10641 10636 10631 10628 10628 10629 10628 10630 10633 10634 10636 10635 10633 10631 10629 10624 10618 10614 10608 10603 10597 10591 10582 10573 10565 10553 10542 10528 10512 10495 10475 10455 10434 10414 10394 10374 10358 10343 10329 10317 10307 10301
10632 10627 10621 10616 10612 10611 10610 10610 10612 10614 10616 10619 10620 10618 10617 10615 10612 10606 10602 10596 10591 10586 10580 10572 10564 10554 10541 10530 10516 10501 10484 10465 10445 10421 10401 10383 10364 10349 10334 10320 10308 10298 10291
10616 10611 10606 10602 10597 10594 10593 10594 10595 10597 10598 10600 10602 10603 10602 10599 10597 10593 10590 10584 10581 10575 10568 10561 10553 10542 10532 10519 10504 10488 10475 10456 10436 10412 10390 10373 10357 10342 10326 10314 10304 10294 10286
10598 10593 10587 10584 10581 10578 10576 10577 10580 10581 10582 10583 10586 10589 10586 10584 10585 10582 10581 10576 10571 10563 10557 10551 10542 10532 10520 10508 10493 10477 10463 10444 10423 10402 10382 10365 10351 10335 10323 10314 10304 10294 10286
10579 10576 10569 10565 10564 10562 10560 10560 10565 10567 10567 10568 10571 10574 10575 10573 10573 10571 10570 10565 10560 10554 10549 10542 10534 10524 10512 10497 10482 10467 10452 10432 10411 10391 10376 10362 10345 10331 10320 10312 10305 10296 10289
10558 10557 10551 10548 10547 10546 10545 10546 10550 10553 10555 10557 10562 10565 10564 10562 10561 10561 10558 10553 10549 10545 10539 10534 10525 10513 10502 10488 10472 10457 10440 10419 10401 10383 10368 10355 10342 10332 10322 10316 10308 10300 10293
10539 10534 10532 10531 10530 10530 10531 10532 10536 10539 10543 10545 10548 10552 10552 10552 10552 10550 10548 10544 10540 10536 10531 10524 10514 10504 10492 10478 10462 10445 10426 10408 10391 10375 10362 10350 10342 10333 10327 10321 10314 10305 10299
10520 10515 10513 10512 10512 10515 10518 10519 10523 10527 10530 10532 10535 10541 10540 10542 10542 10540 10538 10535 10531 10527 10522 10513 10505 10495 10481 10468 10451 10434 10415 10397 10382 10369 10357 10348 10341 10335 10330 10326 10320 10314 10308
10498 10496 10496 10496 10497 10498 10503 10506 10510 10515 10518 10520 10523 10532 10533 10532 10531 10530 10528 10525 10524 10519 10512 10503 10495 10483 10470 10456 10441 10421 10402 10387 10374 10363 10353 10346 10340 10336 10332 10329 10325 10320 10315
10474 10475 10477 10479 10482 10485 10488 10494 10499 10503 10507 10511 10518 10523 10524 10522 10521 10521 10519 10518 10516 10510 10501 10493 10484 10472 10460 10445 10429 10412 10394 10379 10367 10357 10349 10344 10340 10335 10333 10330 10326 10323 10319
10454 10453 10457 10461 10465 10470 10475 10484 10488 10493 10496 10502 10509 10512 10513 10513 10514 10514 10513 10510 10506 10499 10492 10484 10474 10463 10450 10435 10419 10402 10385 10371 10360 10352 10346 10342 10338 10334 10330 10328 10325 10322 10319
10437 10435 10439 10444 10449 10456 10462 10473 10478 10483 10487 10494 10498 10504 10507 10507 10506 10506 10505 10501 10497 10489 10483 10475 10465 10454 10440 10424 10408 10392 10378 10366 10356 10350 10344 10339 10335 10330 10327 10324 10321 10318 10316
10417 10418 10422 10428 10435 10444 10452 10462 10469 10475 10479 10486 10494 10499 10500 10499 10499 10498 10497 10493 10486 10480 10474 10467 10456 10443 10428 10412 10397 10383 10372 10362 10354 10348 10342 10336 10331 10326 10322 10318 10315 10313 10310
10397 10402 10409 10415 10425 10435 10444 10453 10461 10468 10473 10482 10488 10492 10492 10492 10492 10491 10489 10485 10478 10472 10466 10456 10443 10430 10415 10401 10386 10375 10366 10358 10351 10344 10337 10331 10326 10320 10315 10310 10307 10305 10303
10379 10387 10397 10405 10417 10428 10437 10445 10454 10461 10470 10477 10482 10485 10486 10486 10485 10484 10481 10475 10469 10463 10454 10444 10431 10417 10404 10388 10377 10367 10359 10352 10344 10336 10330 10324 10318 10313 10308 10303 10299 10296 10294
10363 10375 10386 10398 10410 10420 10430 10440 10449 10458 10464 10469 10473 10476 10478 10479 10478 10475 10472 10466 10460 10454 10444 10433 10418 10405 10391 10378 10369 10361 10354 10346 10337 10331 10324 10318 10312 10306 10301 10297 10293 10290 10286
10351 10364 10378 10393 10404 10415 10424 10434 10446 10454 10459 10464 10468 10470 10471 10471 10470 10468 10463 10456 10451 10444 10433 10419 10406 10392 10380 10370 10362 10356 10348 10340 10333 10326 10319 10312 10306 10301 10296 10292 10288 10284 10281
10342 10356 10372 10386 10399 10411 10421 10432 10443 10449 10454 10460 10464 10464 10465 10464 10464 10458 10453 10448 10441 10433 10420 10407 10394 10381 10371 10364 10358 10351 10344 10337 10330 10323 10316 10309 10303 10298 10294 10289 10285 10282 10279
10335 10353 10370 10384 10399 10409 10420 10431 10437 10444 10450 10456 10458 10459 10459 10458 10454 10451 10447 10439 10430 10420 10408 10396 10384 10374 10366 10360 10353 10346 10340 10333 10326 10319 10313 10307 10301 10297 10292 10289 10285 10282 10281
10336 10353 10367 10385 10398 10409 10420 10429 10437 10444 10446 10449 10454 10455 10453 10451 10448 10443 10438 10429 10419 10408 10397 10385 10375 10369 10364 10357 10351 10344 10337 10331 10323 10316 10310 10305 10300 10296 10292 10288 10286 10285 10283
10341 10359 10375 10388 10402 10413 10423 10431 10438 10442 10445 10448 10449 10448 10446 10445 10439 10434 10426 10417 10407 10396 10386 10376 10370 10366 10360 10355 10349 10343 10336 10330 10322 10316 10310 10305 10301 10297 10293 10291 10289 10288 10287